Location: Notre Dame Regional High School Observatory
(37.3056°N, 89.6097°W)
Time: 15:14:10
(UTC-05:00)

Okean 2 Rocket - Visible Passes

Search period start: 25 August 2016 00:00
Search period end: 04 September 2016 00:00
Orbit: 617 x 642 km, 82.5° (Epoch: 25 August)

Date Brightness Start Highest point End Pass type
(mag) Time Alt. Az. Time Alt. Az. Time Alt. Az.
25 Aug 6.5 04:12:24 10° NE 04:13:30 11° ENE 04:14:38 10° E visible
25 Aug 3.2 05:47:33 10° NNW 05:51:59 60° W 05:56:25 10° S visible
26 Aug 5.7 04:30:58 10° NNE 04:34:27 22° ENE 04:37:57 10° SE visible
27 Aug 4.3 04:50:57 10° N 04:55:16 44° E 04:59:35 10° SSE visible
28 Aug 3.1 05:11:25 10° N 05:15:57 86° W 05:20:28 10° S visible
29 Aug 6.0 03:55:29 10° NE 03:58:16 16° ENE 04:01:03 10° ESE visible
29 Aug 3.6 05:32:18 10° NNW 05:36:31 40° W 05:40:44 10° SSW visible
30 Aug 4.9 04:15:06 10° NNE 04:19:09 31° ENE 04:23:10 10° SE visible
30 Aug 4.5 05:53:44 10° NW 05:56:58 20° W 06:00:13 10° SW visible
31 Aug 3.4 04:35:23 10° N 04:39:53 67° E 04:44:23 10° SSE visible
01 Sep 6.2 03:20:33 10° NE 03:22:04 11° ENE 03:23:34 10° E visible
01 Sep 3.1 04:56:04 10° NNW 05:00:31 57° W 05:04:21 13° S visible
02 Sep 5.3 03:39:23 10° NNE 03:43:00 23° ENE 03:45:42 14° ESE visible
02 Sep 4.1 05:17:13 10° NNW 05:21:01 27° W 05:22:58 20° SW visible
03 Sep 4.0 03:59:25 10° N 04:03:48 46° E 04:04:44 40° ESE visible
03 Sep 4.8 05:39:13 10° NW 05:41:24 13° W 05:42:01 13° W visible
